Location: Star Hoppers Observatory
(42.7905°N, 83.6127°W)
Time: 16:18:04
(UTC-04:00)

Daily predictions for brighter satellites

Satellite Brightness Start Highest point End
(mag) Time Altitude Azimuth Time Altitude Azimuth Time Altitude Azimuth
ATLAS CENTAUR R/B 3.6 19:26:13 10° SSW 19:30:47 57° ESE 19:44:33 10° NE
OAO 3 Rocket 4.4 19:37:16 10° WSW 19:41:27 32° S 19:45:41 10° ESE
Cosmos 1758 4.0 19:40:43 10° SSE 19:44:25 34° E 19:48:09 10° NNE
Cosmos 1464 Rocket 4.0 19:39:12 10° S 19:45:18 60° E 19:51:21 10° NNE
Cosmos 2034 Rocket 4.3 19:39:40 10° SSE 19:45:33 45° E 19:51:33 10° NNE
SL-16 R/B 2.6 19:42:57 10° SSW 19:48:38 73° WNW 19:54:21 10° NNE
Cosmos 1378 3.2 19:44:54 10° N 19:48:39 86° W 19:52:22 10° S
Cosmos 1408 Rocket 3.6 19:45:00 10° N 19:49:16 55° E 19:53:30 10° SSE
SKYMED 2 3.6 19:45:51 10° NNE 19:50:13 89° WNW 19:54:34 10° SSW
Meteor 1-21 Rocket 4.4 19:49:25 10° N 19:54:46 47° ENE 20:00:05 10° SSE
Cosmos 1766 3.5 19:52:49 10° SSW 19:56:47 76° W 20:00:48 10° N
CZ-4C R/B 4.1 19:55:47 10° W 20:00:35 30° NW 20:05:57 10° NNE
Spot 1 4.5 19:56:23 10° SE 20:00:48 46° ENE 20:05:01 10° N
Helios 1A 3.7 19:57:29 10° SE 20:01:16 33° ENE 20:05:05 10° N
IDEFIX/ARIANE 42P 4.4 19:57:42 10° SSW 20:02:29 36° W 20:07:19 10° NNW
NOSS 3-2 (A) 4.0 19:59:51 10° SW 20:05:54 63° NW 20:12:34 10° NNE
Meteor 1-28 Rocket 3.1 20:03:57 10° NNE 20:07:40 66° E 20:11:21 10° S
Meteor 1-29 3.9 20:06:17 10° NE 20:09:17 26° E 20:12:16 10° SSE
GPS 2-04 Rocket1 4.0 20:10:28 10° SW 20:13:10 21° S 20:15:05 14° SE
NOAA 12 4.1 20:11:49 10° SSE 20:17:05 89° WSW 20:22:25 10° NNW
ASTEX 1 4.1 20:13:00 10° NNE 20:17:21 31° E 20:21:40 10° SSE
SAR-Lupe-1 4.5 20:14:50 10° S 20:18:21 66° WSW 20:21:55 10° NNW
H-2A R/B 4.0 20:17:06 18° ESE 20:18:42 23° ENE 20:21:48 10° NNE
Cosmos 1943 Rocket 3.6 20:14:46 10° N 20:18:53 20° NE 20:21:11 16° E
Cosmos 1452 Rocket 4.0 20:14:53 10° NNW 20:20:05 64° WSW 20:25:15 10° S
Cosmos 1743 Rocket 3.6 20:15:42 10° N 20:20:06 56° E 20:24:24 10° SSE
Resurs 1-3 3.8 20:17:38 10° SSE 20:21:52 50° ENE 20:26:07 10° N
Cosmos 1805 3.3 20:18:28 10° S 20:22:24 85° W 20:26:22 10° N
ALOS 2.7 20:20:29 10° SE 20:24:49 40° ENE 20:29:11 10° N
Cosmos 2369 Rocket 2.5 20:21:27 10° NNW 20:26:54 46° ENE 20:31:02 17° SE
Cosmos 1943 3.5 20:23:58 10° S 20:29:11 41° ESE 20:34:26 10° NE
Helios 1B rocket 2.4 20:25:24 10° NNE 20:29:30 62° ESE 20:33:34 10° S
Resurs 01 Rocket 1.5 20:25:31 10° SSE 20:29:57 79° ENE 20:34:25 10° N
SL-8 R/B 3.6 20:26:09 10° WSW 20:30:56 80° SSE 20:34:18 20° ENE
CENTAUR R/B 2.7 20:25:40 10° S 20:31:24 48° ESE 20:37:50 10° NE
Gbstr 26 Del rocket 3.5 20:28:58 10° SSW 20:33:11 48° SE 20:36:27 20° ENE
Cosmos 1953 3.0 20:32:10 10° SSW 20:36:04 57° W 20:40:00 10° N
Cosmos 1603 3.9 20:30:41 10° SSW 20:36:24 78° WNW 20:42:13 10° NNE
ISS -3.5 20:33:12 10° SW 20:36:27 82° SE 20:37:49 32° ENE
BREEZE-M DEB (TANK) 4.1 20:22:43 10° W 20:38:33 71° N 20:41:39 24° E
Cosmos 1420 Rocket 4.2 20:33:57 10° NNW 20:39:17 78° WSW 20:44:35 10° SSE
Cosmos 1733 3.4 20:37:02 10° SSE 20:40:45 47° E 20:44:29 10° NNE
ERBS 3.9 20:41:19 10° NNW 20:44:09 22° NNE 20:44:31 22° NE
Nadezhda 4 Rocket 4.0 20:41:19 10° N 20:47:37 84° W 20:53:48 10° S
Cosmos 1470 2.6 20:44:02 10° S 20:47:53 73° E 20:51:46 10° NNE
Cosmos 1674 2.6 20:43:59 10° N 20:47:54 87° E 20:51:28 12° S
GP-B 3.4 20:47:39 10° NNE 20:51:54 44° E 20:52:57 37° SE
Cosmos 2058 4.0 20:48:56 10° NNE 20:51:47 28° NE 20:51:47 28° NE
Spot 2 Rocket 4.0 20:48:58 10° S 20:53:56 61° WSW 20:58:57 10° NNW
Abrixas 2.9 20:52:49 10° W 20:55:46 54° NNW 20:56:04 51° N
Cosmos 1092 Rocket 3.9 20:51:25 10° N 20:57:39 86° E 21:03:47 10° S
Cosmos 1048 Rocket 4.2 20:53:39 10° SSW 20:58:56 72° WNW 21:04:11 10° NNE
Cosmos 2151 2.9 20:56:52 10° N 21:01:03 58° E 21:01:36 52° ESE
ATLAS 5 CENTAUR R/B 3.7 20:58:18 10° WSW 21:02:37 30° NW 21:07:17 10° NNE
Envisat 4.1 21:05:37 27° NE 21:05:37 27° NE 21:09:16 10° N
Cosmos 2221 4.3 21:09:42 18° NNE 21:09:42 18° NNE 21:11:01 10° NNE
Cosmos 2142 Rocket 4.4 21:01:21 10° S 21:07:40 71° E 21:14:03 10° NNE
Cosmos 1655 Rocket 4.1 21:01:53 10° N 21:07:58 53° ENE 21:10:10 37° SE
Cosmos 2026 Rocket 3.9 21:02:34 10° N 21:08:38 59° E 21:11:21 33° SE
Cosmos 1174 3.8 21:05:59 10° SSW 21:10:40 83° WNW 21:12:05 39° NNE
Cosmos 158 Rocket 3.7 21:05:50 10° SSW 21:10:43 89° E 21:15:37 10° NNE
Meteor 1-16 Rocket 4.0 21:06:34 10° S 21:11:46 61° E 21:17:01 10° NNE
Cosmos 1634 Rocket 3.9 21:08:25 10° S 21:14:39 84° E 21:20:53 10° N
USA 215 3.1 21:09:20 15° NE 21:14:54 81° SE 21:21:26 10° SW
CZ-4B DEB 4.1 21:22:25 38° WSW 21:22:43 39° W 21:25:49 10° NNW
Meteor 1-11 4.1 21:17:46 10° N 21:23:35 76° E 21:25:15 48° SSE
Meteor 2-20 4.5 21:24:02 10° N 21:30:05 55° ENE 21:30:11 55° E
ERS-1 Rocket 3.4 21:35:50 49° NNE 21:35:50 49° NNE 21:39:49 10° N
Cosmos 1110 Rocket 4.4 21:44:30 10° NNW 21:49:44 60° WSW 21:50:20 56° SW
BREEZE-M DEB (TANK) 4.4 21:53:33 10° W 22:02:21 45° NNW 22:02:54 44° N
Cosmos 1943 Rocket 2.4 21:57:36 10° NNW 22:02:44 66° WNW 22:02:44 66° WNW
Cosmos 2251 Rocket 4.3 22:03:34 10° SW 22:08:37 49° WNW 22:13:44 10° N
Cosmos 2369 Rocket 4.0 22:05:59 10° NW 22:10:39 27° WSW 22:12:52 21° SW
CENTAUR R/B 3.8 22:16:26 10° WSW 22:22:14 38° NW 22:28:44 10° NNE
USA 215 4.3 22:56:44 38° N 22:57:34 40° NNW 23:03:32 10° W
